Milan, NH

1:04 AM EST on February 23, 2017 (GMT -0500)
Berlin Municipal

Weather History for KBML - November, 2012

Change the Weather History Date:

Friday, November 16, 2012

  Actual Average Record
Temperature  
Mean Temperature 28 °F -  
Max Temperature 41 °F 38 °F 64 °F (2008)
Min Temperature 14 °F 21 °F 1 °F (1996)
Degree Days  
Heating Degree Days 38    
Moisture  
Dew Point 19 °F    
Average Humidity 82    
Maximum Humidity 93    
Minimum Humidity 49    
Precipitation  
Precipitation 0.00 in - - ()
Sea Level Pressure  
Sea Level Pressure 30.37 in    
Wind  
Wind Speed 0 mph (NNW)    
Max Wind Speed 5 mph    
Max Gust Speed -    
Visibility 8 miles    
Events Fog    
Averages and records for this station are not official NWS values.
T = Trace of Precipitation, MM = Missing Value Source: NWS Daily Summary

Daily Weather History Graph

Daily Weather History Graph

Search for Another Location

Airport or City:

Trip Planner

Search our weather history database for the weather conditions in past years. The results will help you decide how hot, cold, wet, or windy it might be!

Date:

Astronomy

Nov. 16, 2012 Rise Set
Actual Time 6:43 AM EST 4:15 PM EST
Civil Twilight 6:11 AM EST 4:47 PM EST
Nautical Twilight 5:36 AM EST 5:22 PM EST
Astronomical Twilight 5:01 AM EST 5:57 PM EST
Moon 9:37 AM EST (11/16) 7:09 PM EST (11/16)
Length of Visible Light 10h 35m
Length of Day
9h 32m
Waxing Crescent, 11% of the Moon is Illuminated
Nov 16
Waxing Crescent
Nov 20
First Quarter
Nov 28
Full
Dec 6
Last Quarter
Dec 13
New

Hourly Weather History & Observations

Time (EST) Temp. Windchill Dew Point Humidity Pressure Visibility Wind Dir Wind Speed Gust Speed Precip Events Conditions
12:52 AM 18.0 °F - 15.1 °F 88% 30.34 in 10.0 mi Calm Calm - N/A   Clear
1:52 AM 17.1 °F - 12.9 °F 84% 30.34 in 10.0 mi Calm Calm - N/A   Clear
2:52 AM 16.0 °F - 12.9 °F 88% 30.34 in 10.0 mi Calm Calm - N/A   Clear
3:52 AM 16.0 °F - 12.9 °F 88% 30.34 in 10.0 mi Calm Calm - N/A   Clear
4:11 AM 15.8 °F - 12.2 °F 86% 30.28 in 10.0 mi Calm Calm - N/A   Scattered Clouds
4:52 AM 16.0 °F - 12.9 °F 88% 30.34 in 7.0 mi Calm Calm - N/A   Overcast
5:33 AM 15.8 °F - 14.0 °F 93% 30.28 in 1.8 mi Calm Calm - N/A   Mostly Cloudy
5:35 AM 15.8 °F - 14.0 °F 93% 30.28 in 1.0 mi Calm Calm - N/A   Mist
5:42 AM 15.8 °F - 14.0 °F 93% 30.29 in 0.5 mi Calm Calm - N/A Fog Light Freezing Fog
5:49 AM 17.6 °F - 14.0 °F 86% 30.29 in 0.2 mi Calm Calm - N/A Fog Light Freezing Fog
5:52 AM 17.1 °F - 14.0 °F 88% 30.36 in 0.2 mi Calm Calm - N/A Fog Light Freezing Fog
6:00 AM 17.6 °F - 15.8 °F 93% 30.30 in 1.2 mi Calm Calm - N/A   Mostly Cloudy
6:02 AM 17.6 °F - 14.0 °F 86% 30.30 in 2.0 mi Calm Calm - N/A   Mostly Cloudy
6:13 AM 15.8 °F - 12.2 °F 86% 30.30 in 3.0 mi Calm Calm - N/A   Scattered Clouds
6:52 AM 14.0 °F - 10.0 °F 84% 30.38 in 10.0 mi Calm Calm - N/A   Clear
7:20 AM 14.0 °F - 10.4 °F 86% 30.32 in 10.0 mi Calm Calm - N/A   Partly Cloudy
7:52 AM 15.1 °F - 12.0 °F 88% 30.39 in 10.0 mi Calm Calm - N/A   Partly Cloudy
8:52 AM 21.9 °F - 19.0 °F 89% 30.39 in 10.0 mi Calm Calm - N/A   Clear
9:52 AM 26.1 °F - 23.0 °F 88% 30.40 in 10.0 mi Calm Calm - N/A   Clear
10:52 AM 33.1 °F - 26.1 °F 75% 30.37 in 10.0 mi Calm Calm - N/A   Clear
11:52 AM 37.0 °F - 24.1 °F 59% 30.35 in 10.0 mi Calm Calm - N/A   Clear
12:52 PM 41.0 °F 38.0 °F 23.0 °F 49% 30.34 in 10.0 mi NNW 4.6 mph - N/A   Clear
1:52 PM 39.9 °F 36.7 °F 23.0 °F 51% 30.34 in 10.0 mi NNW 4.6 mph - N/A   Clear
2:52 PM 41.0 °F 39.0 °F 23.0 °F 49% 30.35 in 10.0 mi West 3.5 mph - N/A   Clear
3:52 PM 39.0 °F - 24.1 °F 55% 30.37 in 10.0 mi Calm Calm - N/A   Clear
4:52 PM 35.1 °F 31.0 °F 24.1 °F 64% 30.40 in 10.0 mi North 4.6 mph - N/A   Clear
5:52 PM 30.0 °F 25.2 °F 24.1 °F 79% 30.42 in 10.0 mi NNW 4.6 mph - N/A   Clear
6:52 PM 27.0 °F - 23.0 °F 85% 30.44 in 10.0 mi Calm Calm - N/A   Clear
7:52 PM 26.1 °F - 21.9 °F 84% 30.45 in 10.0 mi Calm Calm - N/A   Clear
8:52 PM 25.0 °F - 21.9 °F 88% 30.47 in 10.0 mi Calm Calm - N/A   Partly Cloudy
9:18 PM 24.8 °F - 23.0 °F 93% 30.41 in 10.0 mi Calm Calm - N/A   Mostly Cloudy
9:52 PM 28.0 °F - 25.0 °F 88% 30.47 in 10.0 mi Calm Calm - N/A   Overcast
10:52 PM 28.9 °F - 25.0 °F 85% 30.47 in 10.0 mi Calm Calm - N/A   Overcast
11:13 PM 28.4 °F - 26.6 °F 93% 30.42 in 10.0 mi Calm Calm - N/A   Overcast
11:52 PM 28.9 °F - 26.1 °F 89% 30.47 in 10.0 mi Calm Calm - N/A   Overcast